Time,TemperatureF,DewpointF,PressureIn,WindDirection,WindDirectionDegrees,WindSpeedMPH,WindSpeedGustMPH,Humidity,HourlyPrecipIn,Conditions,Clouds,dailyrainin,SoftwareType,DateUTC
2013-07-01 00:06:00,41.5,38.0,29.83,WNW,302,0.0,-999.0,86,-99.99,,,0.12,weatherlink.com 1.10,2013-07-01 06:06:00,
2013-07-01 00:21:00,41.3,38.0,29.83,WNW,302,0.0,-999.0,87,-99.99,,,0.12,weatherlink.com 1.10,2013-07-01 06:21:00,
2013-07-01 00:36:00,41.0,37.0,29.82,WNW,287,0.0,-999.0,87,-99.99,,,0.12,weatherlink.com 1.10,2013-07-01 06:36:00,
2013-07-01 00:51:00,41.3,37.0,29.82,WNW,290,0.0,-999.0,85,-99.99,,,0.12,weatherlink.com 1.10,2013-07-01 06:51:00,
2013-07-01 01:06:00,41.4,37.0,29.82,WNW,290,0.0,-999.0,85,-99.99,,,0.00,weatherlink.com 1.10,2013-07-01 07:06:00,
2013-07-01 01:21:00,41.1,37.0,29.82,WNW,294,0.0,-999.0,85,-99.99,,,0.00,weatherlink.com 1.10,2013-07-01 07:21:00,
2013-07-01 01:36:00,41.0,37.0,29.82,WNW,302,0.0,-999.0,84,-99.99,,,0.00,weatherlink.com 1.10,2013-07-01 07:36:00,
2013-07-01 01:51:00,41.1,36.0,29.81,WNW,296,2.0,-999.0,83,-99.99,,,0.00,weatherlink.com 1.10,2013-07-01 07:51:00,
2013-07-01 02:06:00,41.5,36.0,29.82,WNW,294,4.0,-999.0,81,-99.99,,,0.00,weatherlink.com 1.10,2013-07-01 08:06:00,
2013-07-01 02:21:00,41.0,36.0,29.83,WNW,292,0.0,-999.0,83,-99.99,,,0.00,weatherlink.com 1.10,2013-07-01 08:21:00,
2013-07-01 02:36:00,40.3,36.0,29.83,WNW,292,0.0,-999.0,83,-99.99,,,0.00,weatherlink.com 1.10,2013-07-01 08:36:00,
2013-07-01 02:51:00,40.0,35.0,29.84,WNW,292,0.0,-999.0,82,-99.99,,,0.00,weatherlink.com 1.10,2013-07-01 08:51:00,
2013-07-01 03:06:00,40.4,34.0,29.84,WNW,292,0.0,-999.0,79,-99.99,,,0.00,weatherlink.com 1.10,2013-07-01 09:06:00,
2013-07-01 03:20:00,41.5,35.0,29.84,WNW,292,0.0,-999.0,79,-99.99,,,0.00,weatherlink.com 1.10,2013-07-01 09:20:00,
2013-07-01 03:35:00,40.7,33.0,29.84,WNW,292,0.0,-999.0,74,-99.99,,,0.00,weatherlink.com 1.10,2013-07-01 09:35:00,
2013-07-01 03:50:00,40.5,33.0,29.84,WNW,298,0.0,-999.0,75,-99.99,,,0.00,weatherlink.com 1.10,2013-07-01 09:50:00,
2013-07-01 04:05:00,41.0,32.0,29.84,NW,315,0.0,-999.0,69,-99.99,,,0.00,weatherlink.com 1.10,2013-07-01 10:05:00,
2013-07-01 04:20:00,40.6,33.0,29.84,NW,313,0.0,-999.0,75,-99.99,,,0.00,weatherlink.com 1.10,2013-07-01 10:20:00,
2013-07-01 04:35:00,39.1,32.0,29.84,NW,313,0.0,-999.0,77,-99.99,,,0.00,weatherlink.com 1.10,2013-07-01 10:35:00,
2013-07-01 04:50:00,38.4,32.0,29.85,NW,313,0.0,-999.0,77,-99.99,,,0.00,weatherlink.com 1.10,2013-07-01 10:50:00,
2013-07-01 05:05:00,38.2,32.0,29.85,NW,313,0.0,-999.0,78,-99.99,,,0.00,weatherlink.com 1.10,2013-07-01 11:05:00,
2013-07-01 05:20:00,38.7,32.0,29.86,WNW,286,0.0,-999.0,76,-99.99,,,0.00,weatherlink.com 1.10,2013-07-01 11:20:00,
2013-07-01 05:35:00,38.9,31.0,29.87,NW,304,3.0,-999.0,72,-99.99,,,0.00,weatherlink.com 1.10,2013-07-01 11:35:00,
2013-07-01 05:50:00,41.9,31.0,29.87,NW,306,1.0,-999.0,66,-99.99,,,0.00,weatherlink.com 1.10,2013-07-01 11:50:00,
2013-07-01 06:05:00,42.7,31.0,29.87,WNW,300,0.0,-999.0,64,-99.99,,,0.00,weatherlink.com 1.10,2013-07-01 12:05:00,
2013-07-01 06:20:00,42.4,30.0,29.88,WNW,298,0.0,-999.0,62,-99.99,,,0.00,weatherlink.com 1.10,2013-07-01 12:20:00,
2013-07-01 06:35:00,43.5,31.0,29.89,WNW,296,0.0,-999.0,61,-99.99,,,0.00,weatherlink.com 1.10,2013-07-01 12:35:00,
2013-07-01 06:50:00,45.1,32.0,29.88,WNW,296,0.0,-999.0,61,-99.99,,,0.00,weatherlink.com 1.10,2013-07-01 12:50:00,
2013-07-01 07:05:00,46.1,33.0,29.89,WNW,284,4.0,-999.0,60,-99.99,,,0.00,weatherlink.com 1.10,2013-07-01 13:05:00,
2013-07-01 07:20:00,47.0,34.0,29.88,NNW,340,0.0,-999.0,61,-99.99,,,0.00,weatherlink.com 1.10,2013-07-01 13:20:00,
2013-07-01 07:35:00,47.8,36.0,29.88,NNW,348,0.0,-999.0,63,-99.99,,,0.00,weatherlink.com 1.10,2013-07-01 13:35:00,
2013-07-01 07:50:00,49.4,36.0,29.88,NE,36,2.0,-999.0,60,-99.99,,,0.00,weatherlink.com 1.10,2013-07-01 13:50:00,
2013-07-01 08:05:00,50.5,36.0,29.88,NE,53,0.0,-999.0,59,-99.99,,,0.00,weatherlink.com 1.10,2013-07-01 14:05:00,
2013-07-01 08:20:00,52.0,37.0,29.89,NE,54,2.0,-999.0,57,-99.99,,,0.00,weatherlink.com 1.10,2013-07-01 14:20:00,
2013-07-01 08:35:00,53.4,36.0,29.89,ENE,59,0.0,-999.0,53,-99.99,,,0.00,weatherlink.com 1.10,2013-07-01 14:35:00,
2013-07-01 08:50:00,54.2,35.0,29.89,ENE,60,7.0,-999.0,48,-99.99,,,0.00,weatherlink.com 1.10,2013-07-01 14:50:00,
2013-07-01 09:05:00,54.5,35.0,29.89,NE,50,0.0,-999.0,48,-99.99,,,0.00,weatherlink.com 1.10,2013-07-01 15:05:00,
2013-07-01 09:20:00,56.5,35.0,29.89,ENE,69,7.0,-999.0,45,-99.99,,,0.00,weatherlink.com 1.10,2013-07-01 15:20:00,
2013-07-01 09:35:00,58.3,33.0,29.88,East,87,0.0,-999.0,39,-99.99,,,0.00,weatherlink.com 1.10,2013-07-01 15:35:00,
2013-07-01 09:50:00,58.7,34.0,29.88,East,80,0.0,-999.0,39,-99.99,,,0.00,weatherlink.com 1.10,2013-07-01 15:50:00,
2013-07-01 10:05:00,59.0,32.0,29.88,NE,44,3.0,-999.0,36,-99.99,,,0.00,weatherlink.com 1.10,2013-07-01 16:05:00,
2013-07-01 10:20:00,59.8,32.0,29.88,ENE,62,0.0,-999.0,35,-99.99,,,0.00,weatherlink.com 1.10,2013-07-01 16:20:00,
2013-07-01 10:35:00,60.4,32.0,29.88,East,90,0.0,-999.0,34,-99.99,,,0.00,weatherlink.com 1.10,2013-07-01 16:35:00,
2013-07-01 10:50:00,60.6,33.0,29.88,ENE,65,7.0,-999.0,35,-99.99,,,0.00,weatherlink.com 1.10,2013-07-01 16:50:00,
2013-07-01 11:05:00,61.3,33.0,29.88,WSW,254,1.0,-999.0,34,-99.99,,,0.00,weatherlink.com 1.10,2013-07-01 17:05:00,
2013-07-01 11:20:00,61.9,32.0,29.87,North,5,4.0,-999.0,33,-99.99,,,0.00,weatherlink.com 1.10,2013-07-01 17:20:00,
2013-07-01 11:35:00,62.5,33.0,29.87,East,93,4.0,-999.0,33,-99.99,,,0.00,weatherlink.com 1.10,2013-07-01 17:35:00,
2013-07-01 11:50:00,63.4,34.0,29.86,ENE,69,0.0,-999.0,33,-99.99,,,0.00,weatherlink.com 1.10,2013-07-01 17:50:00,
2013-07-01 12:05:00,64.2,34.0,29.86,North,10,0.0,-999.0,32,-99.99,,,0.00,weatherlink.com 1.10,2013-07-01 18:05:00,
2013-07-01 12:20:00,64.3,35.0,29.86,North,360,0.0,-999.0,34,-99.99,,,0.00,weatherlink.com 1.10,2013-07-01 18:20:00,
2013-07-01 12:35:00,64.8,33.0,29.85,NE,44,0.0,-999.0,30,-99.99,,,0.00,weatherlink.com 1.10,2013-07-01 18:35:00,
2013-07-01 12:50:00,64.4,32.0,29.86,NE,55,0.0,-999.0,30,-99.99,,,0.00,weatherlink.com 1.10,2013-07-01 18:50:00,
2013-07-01 13:05:00,64.8,32.0,29.86,East,96,0.0,-999.0,29,-99.99,,,0.00,weatherlink.com 1.10,2013-07-01 19:05:00,
2013-07-01 13:20:00,66.0,31.0,29.86,ENE,75,0.0,-999.0,27,-99.99,,,0.00,weatherlink.com 1.10,2013-07-01 19:20:00,
2013-07-01 13:35:00,65.8,30.0,29.86,NNE,15,0.0,-999.0,26,-99.99,,,0.00,weatherlink.com 1.10,2013-07-01 19:35:00,
2013-07-01 13:50:00,67.1,29.0,29.86,NNE,30,0.0,-999.0,24,-99.99,,,0.00,weatherlink.com 1.10,2013-07-01 19:50:00,
2013-07-01 14:05:00,68.1,28.0,29.86,WNW,293,2.0,-999.0,22,-99.99,,,0.00,weatherlink.com 1.10,2013-07-01 20:05:00,
2013-07-01 14:20:00,68.5,30.0,29.85,NNE,28,0.0,-999.0,24,-99.99,,,0.00,weatherlink.com 1.10,2013-07-01 20:20:00,
2013-07-01 14:35:00,68.8,32.0,29.85,West,273,0.0,-999.0,26,-99.99,,,0.00,weatherlink.com 1.10,2013-07-01 20:35:00,
2013-07-01 14:50:00,63.9,40.0,29.85,East,93,0.0,-999.0,42,-99.99,,,0.00,weatherlink.com 1.10,2013-07-01 20:50:00,
2013-07-01 15:05:00,59.0,40.0,29.85,ESE,123,0.0,-999.0,49,-99.99,,,0.00,weatherlink.com 1.10,2013-07-01 21:05:00,
2013-07-01 15:21:00,57.7,40.0,29.87,ESE,121,0.0,-999.0,52,-99.99,,,0.00,weatherlink.com 1.10,2013-07-01 21:21:00,
2013-07-01 15:36:00,57.3,41.0,29.86,ESE,102,0.0,-999.0,54,-99.99,,,0.00,weatherlink.com 1.10,2013-07-01 21:36:00,
2013-07-01 15:52:00,59.0,40.0,29.86,SE,132,0.0,-999.0,50,-99.99,,,0.00,weatherlink.com 1.10,2013-07-01 21:52:00,
2013-07-01 16:06:00,59.0,41.0,29.86,ESE,111,0.0,-999.0,52,-99.99,,,0.00,weatherlink.com 1.10,2013-07-01 22:06:00,
2013-07-01 16:21:00,58.6,42.0,29.84,East,84,0.0,-999.0,55,-99.99,,,0.00,weatherlink.com 1.10,2013-07-01 22:21:00,
2013-07-01 16:36:00,59.2,41.0,29.85,SE,126,1.0,-999.0,52,-99.99,,,0.00,weatherlink.com 1.10,2013-07-01 22:36:00,
2013-07-01 16:51:00,57.0,41.0,29.85,ESE,105,0.0,-999.0,55,-99.99,,,0.00,weatherlink.com 1.10,2013-07-01 22:51:00,
2013-07-01 17:06:00,54.9,40.0,29.86,ENE,76,2.0,-999.0,58,-99.99,,,0.00,weatherlink.com 1.10,2013-07-01 23:06:00,
2013-07-01 17:21:00,53.5,44.0,29.88,ENE,63,0.0,-999.0,69,-99.99,,,0.05,weatherlink.com 1.10,2013-07-01 23:21:00,
2013-07-01 17:36:00,51.0,45.0,29.89,NE,38,0.0,-999.0,79,-99.99,,,0.09,weatherlink.com 1.10,2013-07-01 23:36:00,
2013-07-01 17:51:00,50.1,46.0,29.86,NE,36,0.0,-999.0,85,-99.99,,,0.10,weatherlink.com 1.10,2013-07-01 23:51:00,
2013-07-01 18:07:00,51.0,46.0,29.84,SSW,196,0.0,-999.0,82,-99.99,,,0.10,weatherlink.com 1.10,2013-07-02 00:07:00,
2013-07-01 18:21:00,51.7,46.0,29.84,SW,226,0.0,-999.0,80,-99.99,,,0.10,weatherlink.com 1.10,2013-07-02 00:21:00,
2013-07-01 18:36:00,52.3,45.0,29.83,SW,225,0.0,-999.0,76,-99.99,,,0.10,weatherlink.com 1.10,2013-07-02 00:36:00,
2013-07-01 18:51:00,52.1,44.0,29.83,South,190,0.0,-999.0,75,-99.99,,,0.10,weatherlink.com 1.10,2013-07-02 00:51:00,
2013-07-01 19:06:00,52.2,46.0,29.83,South,190,0.0,-999.0,79,-99.99,,,0.10,weatherlink.com 1.10,2013-07-02 01:06:00,
2013-07-01 19:20:00,52.5,46.0,29.84,ENE,74,0.0,-999.0,79,-99.99,,,0.10,weatherlink.com 1.10,2013-07-02 01:20:00,
2013-07-01 19:36:00,51.0,45.0,29.85,SE,136,0.0,-999.0,79,-99.99,,,0.10,weatherlink.com 1.10,2013-07-02 01:36:00,
2013-07-01 19:51:00,50.0,45.0,29.85,SSE,150,0.0,-999.0,82,-99.99,,,0.10,weatherlink.com 1.10,2013-07-02 01:51:00,
2013-07-01 20:06:00,49.5,44.0,29.86,SSE,150,0.0,-999.0,81,-99.99,,,0.10,weatherlink.com 1.10,2013-07-02 02:06:00,
2013-07-01 20:21:00,49.1,44.0,29.87,SE,141,0.0,-999.0,83,-99.99,,,0.10,weatherlink.com 1.10,2013-07-02 02:21:00,
2013-07-01 20:36:00,48.6,44.0,29.87,SE,141,0.0,-999.0,84,-99.99,,,0.10,weatherlink.com 1.10,2013-07-02 02:36:00,
2013-07-01 20:51:00,48.4,44.0,29.88,SE,140,0.0,-999.0,85,-99.99,,,0.11,weatherlink.com 1.10,2013-07-02 02:51:00,
2013-07-01 21:06:00,47.9,44.0,29.86,SE,140,0.0,-999.0,86,-99.99,,,0.11,weatherlink.com 1.10,2013-07-02 03:06:00,
2013-07-01 21:21:00,47.5,44.0,29.87,SE,140,0.0,-999.0,86,-99.99,,,0.11,weatherlink.com 1.10,2013-07-02 03:21:00,
2013-07-01 21:36:00,46.8,43.0,29.88,SE,140,0.0,-999.0,86,-99.99,,,0.11,weatherlink.com 1.10,2013-07-02 03:36:00,
2013-07-01 21:51:00,46.1,43.0,29.89,SE,140,0.0,-999.0,87,-99.99,,,0.11,weatherlink.com 1.10,2013-07-02 03:51:00,
2013-07-01 22:06:00,45.4,42.0,29.89,SE,140,0.0,-999.0,88,-99.99,,,0.11,weatherlink.com 1.10,2013-07-02 04:06:00,
2013-07-01 22:21:00,44.9,42.0,29.89,SE,140,0.0,-999.0,88,-99.99,,,0.11,weatherlink.com 1.10,2013-07-02 04:21:00,
2013-07-01 22:36:00,44.7,42.0,29.89,SE,140,0.0,-999.0,90,-99.99,,,0.11,weatherlink.com 1.10,2013-07-02 04:36:00,
2013-07-01 22:51:00,44.9,43.0,29.90,SE,140,0.0,-999.0,91,-99.99,,,0.11,weatherlink.com 1.10,2013-07-02 04:51:00,
2013-07-01 23:06:00,45.0,43.0,29.89,West,276,0.0,-999.0,91,-99.99,,,0.11,weatherlink.com 1.10,2013-07-02 05:06:00,
2013-07-01 23:20:00,44.7,42.0,29.89,WNW,295,4.0,-999.0,90,-99.99,,,0.11,weatherlink.com 1.10,2013-07-02 05:20:00,
2013-07-01 23:36:00,44.3,42.0,29.89,WNW,298,0.0,-999.0,90,-99.99,,,0.11,weatherlink.com 1.10,2013-07-02 05:36:00,
2013-07-01 23:51:00,43.6,41.0,29.89,WNW,298,0.0,-999.0,89,-99.99,,,0.11,weatherlink.com 1.10,2013-07-02 05:51:00,